Time,TemperatureF,DewpointF,PressureIn,WindDirection,WindDirectionDegrees,WindSpeedMPH,WindSpeedGustMPH,Humidity,HourlyPrecipIn,Conditions,Clouds,dailyrainin,SoftwareType,DateUTC
2013-03-27 00:00:00,40.6,29.7,29.99,NW,311,0.0,0.0,65,0.00,,,0.00,Wunderground v.1.15,2013-03-27 04:00:00,
2013-03-27 00:02:00,40.5,29.7,29.99,NW,311,0.0,0.0,65,0.00,,,0.00,Wunderground v.1.15,2013-03-27 04:02:00,
2013-03-27 00:04:00,40.3,29.5,29.99,NW,311,0.0,0.0,65,0.00,,,0.00,Wunderground v.1.15,2013-03-27 04:04:00,
2013-03-27 00:08:00,40.2,29.4,29.99,NW,311,0.0,0.0,65,0.00,,,0.00,Wunderground v.1.15,2013-03-27 04:08:00,
2013-03-27 00:13:00,40.1,29.3,29.99,NW,311,0.0,0.0,65,0.00,,,0.00,Wunderground v.1.15,2013-03-27 04:13:00,
2013-03-27 00:19:00,39.9,29.5,29.99,NW,311,0.0,0.0,66,0.00,,,0.00,Wunderground v.1.15,2013-03-27 04:19:00,
2013-03-27 00:24:00,39.8,29.0,29.99,NW,311,0.0,0.0,65,0.00,,,0.00,Wunderground v.1.15,2013-03-27 04:24:00,
2013-03-27 00:29:00,39.6,29.5,30.00,NW,311,0.0,0.0,67,0.00,,,0.00,Wunderground v.1.15,2013-03-27 04:29:00,
2013-03-27 00:34:00,39.6,29.5,30.00,NW,311,0.0,0.0,67,0.00,,,0.00,Wunderground v.1.15,2013-03-27 04:34:00,
2013-03-27 00:40:00,39.8,29.7,30.00,NW,311,0.0,1.0,67,0.00,,,0.00,Wunderground v.1.15,2013-03-27 04:40:00,
2013-03-27 00:45:00,39.9,29.8,30.00,NW,311,0.0,0.0,67,0.00,,,0.00,Wunderground v.1.15,2013-03-27 04:45:00,
2013-03-27 00:50:00,40.1,30.0,30.00,NW,311,0.0,1.0,67,0.00,,,0.00,Wunderground v.1.15,2013-03-27 04:50:00,
2013-03-27 00:56:00,40.3,30.2,30.00,NW,311,0.0,1.0,67,0.00,,,0.00,Wunderground v.1.15,2013-03-27 04:56:00,
2013-03-27 01:01:00,40.6,30.1,30.00,NW,311,1.0,3.0,66,0.00,,,0.00,Wunderground v.1.15,2013-03-27 05:01:00,
2013-03-27 01:06:00,40.9,30.0,30.00,NW,311,1.0,2.0,65,0.00,,,0.00,Wunderground v.1.15,2013-03-27 05:06:00,
2013-03-27 01:12:00,41.1,29.8,30.00,NW,311,1.0,2.0,64,0.00,,,0.00,Wunderground v.1.15,2013-03-27 05:12:00,
2013-03-27 01:18:00,41.2,29.9,30.00,NNW,327,2.0,4.0,64,0.00,,,0.00,Wunderground v.1.15,2013-03-27 05:18:00,
2013-03-27 01:24:00,41.1,29.5,30.00,NNW,327,2.0,4.0,63,0.00,,,0.00,Wunderground v.1.15,2013-03-27 05:24:00,
2013-03-27 01:29:00,41.1,29.8,30.00,NNW,327,1.0,4.0,64,0.00,,,0.00,Wunderground v.1.15,2013-03-27 05:29:00,
2013-03-27 01:35:00,40.8,29.6,30.00,NNW,327,1.0,2.0,64,0.00,,,0.00,Wunderground v.1.15,2013-03-27 05:35:00,
2013-03-27 01:40:00,40.6,29.7,30.00,NNW,327,1.0,2.0,65,0.00,,,0.00,Wunderground v.1.15,2013-03-27 05:40:00,
2013-03-27 01:47:00,40.5,29.7,30.00,NNW,327,1.0,1.0,65,0.00,,,0.00,Wunderground v.1.15,2013-03-27 05:47:00,
2013-03-27 01:53:00,40.3,29.5,30.00,NNW,327,0.0,0.0,65,0.00,,,0.00,Wunderground v.1.15,2013-03-27 05:53:00,
2013-03-27 01:58:00,40.2,29.7,30.00,NNW,327,0.0,0.0,66,0.00,,,0.00,Wunderground v.1.15,2013-03-27 05:58:00,
2013-03-27 02:04:00,39.9,29.5,30.00,NNW,327,0.0,0.0,66,0.00,,,0.00,Wunderground v.1.15,2013-03-27 06:04:00,
2013-03-27 02:09:00,39.8,29.7,30.00,NNW,327,0.0,0.0,67,0.00,,,0.00,Wunderground v.1.15,2013-03-27 06:09:00,
2013-03-27 02:15:00,39.6,29.9,30.00,NNW,327,0.0,0.0,68,0.00,,,0.00,Wunderground v.1.15,2013-03-27 06:15:00,
2013-03-27 02:20:00,39.3,30.0,30.00,NNW,327,0.0,0.0,69,0.00,,,0.00,Wunderground v.1.15,2013-03-27 06:20:00,
2013-03-27 02:26:00,39.2,29.9,30.00,NNW,327,0.0,0.0,69,0.00,,,0.00,Wunderground v.1.15,2013-03-27 06:26:00,
2013-03-27 02:31:00,39.1,29.8,30.00,NNW,327,0.0,0.0,69,0.00,,,0.00,Wunderground v.1.15,2013-03-27 06:31:00,
2013-03-27 02:36:00,38.8,29.5,30.00,NNW,327,0.0,0.0,69,0.00,,,0.00,Wunderground v.1.15,2013-03-27 06:36:00,
2013-03-27 02:42:00,38.5,30.3,30.00,NNW,327,0.0,0.0,72,0.00,,,0.00,Wunderground v.1.15,2013-03-27 06:42:00,
2013-03-27 02:48:00,38.0,30.1,30.00,NNW,327,0.0,0.0,73,0.00,,,0.00,Wunderground v.1.15,2013-03-27 06:48:00,
2013-03-27 02:54:00,37.6,30.1,30.00,NNW,327,0.0,0.0,74,0.00,,,0.00,Wunderground v.1.15,2013-03-27 06:54:00,
2013-03-27 03:00:00,37.2,30.0,30.00,NNW,327,0.0,0.0,75,0.00,,,0.00,Wunderground v.1.15,2013-03-27 07:00:00,
2013-03-27 03:06:00,36.8,29.6,30.00,NNW,327,0.0,0.0,75,0.00,,,0.00,Wunderground v.1.15,2013-03-27 07:06:00,
2013-03-27 03:12:00,36.5,29.7,30.00,NNW,327,0.0,0.0,76,0.00,,,0.00,Wunderground v.1.15,2013-03-27 07:12:00,
2013-03-27 03:17:00,36.3,29.8,30.00,NNW,327,0.0,0.0,77,0.00,,,0.00,Wunderground v.1.15,2013-03-27 07:17:00,
2013-03-27 03:23:00,36.0,29.8,30.00,NNW,327,0.0,0.0,78,0.00,,,0.00,Wunderground v.1.15,2013-03-27 07:23:00,
2013-03-27 03:29:00,35.6,29.4,30.00,NNW,327,0.0,0.0,78,0.00,,,0.00,Wunderground v.1.15,2013-03-27 07:29:00,
2013-03-27 03:35:00,35.5,29.6,30.00,NNW,327,0.0,0.0,79,0.00,,,0.00,Wunderground v.1.15,2013-03-27 07:35:00,
2013-03-27 03:40:00,35.2,29.6,30.00,NNW,327,0.0,0.0,80,0.00,,,0.00,Wunderground v.1.15,2013-03-27 07:40:00,
2013-03-27 03:45:00,35.0,29.8,30.00,NNW,327,0.0,0.0,81,0.00,,,0.00,Wunderground v.1.15,2013-03-27 07:45:00,
2013-03-27 03:50:00,34.9,29.7,30.00,NNW,327,0.0,0.0,81,0.00,,,0.00,Wunderground v.1.15,2013-03-27 07:50:00,
2013-03-27 03:55:00,34.6,29.7,30.00,NNW,327,0.0,0.0,82,0.00,,,0.00,Wunderground v.1.15,2013-03-27 07:55:00,
2013-03-27 04:01:00,34.4,29.5,30.00,NNW,327,0.0,0.0,82,0.00,,,0.00,Wunderground v.1.15,2013-03-27 08:01:00,
2013-03-27 04:06:00,34.3,29.4,30.00,NNW,327,0.0,0.0,82,0.00,,,0.00,Wunderground v.1.15,2013-03-27 08:06:00,
2013-03-27 04:12:00,33.8,29.2,30.00,NNW,327,0.0,0.0,83,0.00,,,0.00,Wunderground v.1.15,2013-03-27 08:12:00,
2013-03-27 04:18:00,33.5,29.2,30.00,NNW,327,0.0,0.0,84,0.00,,,0.00,Wunderground v.1.15,2013-03-27 08:18:00,
2013-03-27 04:24:00,33.4,29.4,30.00,NNW,327,0.0,0.0,85,0.00,,,0.00,Wunderground v.1.15,2013-03-27 08:24:00,
2013-03-27 04:29:00,33.4,29.7,30.00,NNW,327,0.0,0.0,86,0.00,,,0.00,Wunderground v.1.15,2013-03-27 08:29:00,
2013-03-27 04:34:00,33.5,29.8,30.00,NNW,327,0.0,0.0,86,0.00,,,0.00,Wunderground v.1.15,2013-03-27 08:34:00,
2013-03-27 04:40:00,33.7,30.0,30.00,NNW,327,0.0,0.0,86,0.00,,,0.00,Wunderground v.1.15,2013-03-27 08:40:00,
2013-03-27 04:45:00,34.0,30.3,30.01,NNW,327,0.0,0.0,86,0.00,,,0.00,Wunderground v.1.15,2013-03-27 08:45:00,
2013-03-27 04:51:00,34.0,30.3,30.01,NNW,327,0.0,0.0,86,0.00,,,0.00,Wunderground v.1.15,2013-03-27 08:51:00,
2013-03-27 04:56:00,34.1,30.1,30.01,NNW,327,0.0,0.0,85,0.00,,,0.00,Wunderground v.1.15,2013-03-27 08:56:00,
2013-03-27 05:01:00,34.1,30.1,30.01,NNW,327,0.0,0.0,85,0.00,,,0.00,Wunderground v.1.15,2013-03-27 09:01:00,
2013-03-27 05:06:00,34.3,30.0,30.01,NNW,327,0.0,0.0,84,0.00,,,0.00,Wunderground v.1.15,2013-03-27 09:06:00,
2013-03-27 05:12:00,34.4,30.1,30.01,NNW,327,0.0,0.0,84,0.00,,,0.00,Wunderground v.1.15,2013-03-27 09:12:00,
2013-03-27 05:17:00,34.4,29.8,30.01,NNW,327,0.0,0.0,83,0.00,,,0.00,Wunderground v.1.15,2013-03-27 09:17:00,
2013-03-27 05:22:00,34.3,29.7,30.01,NNW,327,0.0,0.0,83,0.00,,,0.00,Wunderground v.1.15,2013-03-27 09:22:00,
2013-03-27 05:27:00,34.3,29.7,30.01,NNW,327,0.0,0.0,83,0.00,,,0.00,Wunderground v.1.15,2013-03-27 09:27:00,
2013-03-27 05:32:00,34.1,29.5,30.02,NNW,327,0.0,0.0,83,0.00,,,0.00,Wunderground v.1.15,2013-03-27 09:32:00,
2013-03-27 05:37:00,34.0,29.4,30.02,NNW,327,0.0,0.0,83,0.00,,,0.00,Wunderground v.1.15,2013-03-27 09:37:00,
2013-03-27 05:42:00,33.7,29.1,30.02,NNW,327,0.0,0.0,83,0.00,,,0.00,Wunderground v.1.15,2013-03-27 09:42:00,
2013-03-27 05:48:00,33.5,29.2,30.02,NNW,327,0.0,0.0,84,0.00,,,0.00,Wunderground v.1.15,2013-03-27 09:48:00,
2013-03-27 05:53:00,33.2,28.9,30.02,NNW,327,0.0,0.0,84,0.00,,,0.00,Wunderground v.1.15,2013-03-27 09:53:00,
2013-03-27 05:59:00,33.1,28.8,30.03,NNW,327,0.0,0.0,84,0.00,,,0.00,Wunderground v.1.15,2013-03-27 09:59:00,
2013-03-27 06:04:00,33.1,28.8,30.03,NNW,327,0.0,0.0,84,0.00,,,0.00,Wunderground v.1.15,2013-03-27 10:04:00,
2013-03-27 06:09:00,32.9,28.9,30.03,NNW,327,0.0,0.0,85,0.00,,,0.00,Wunderground v.1.15,2013-03-27 10:09:00,
2013-03-27 06:14:00,32.8,28.8,30.03,NNW,327,0.0,0.0,85,0.00,,,0.00,Wunderground v.1.15,2013-03-27 10:14:00,
2013-03-27 06:20:00,32.8,28.8,30.03,NNW,327,0.0,0.0,85,0.00,,,0.00,Wunderground v.1.15,2013-03-27 10:20:00,
2013-03-27 06:25:00,32.9,28.9,30.03,NNW,327,0.0,0.0,85,0.00,,,0.00,Wunderground v.1.15,2013-03-27 10:25:00,
2013-03-27 06:30:00,32.9,28.9,30.03,NNW,327,0.0,0.0,85,0.00,,,0.00,Wunderground v.1.15,2013-03-27 10:30:00,
2013-03-27 06:35:00,33.1,28.8,30.03,NNW,327,0.0,0.0,84,0.00,,,0.00,Wunderground v.1.15,2013-03-27 10:35:00,
2013-03-27 06:40:00,33.1,28.8,30.03,NNW,327,0.0,0.0,84,0.00,,,0.00,Wunderground v.1.15,2013-03-27 10:40:00,
2013-03-27 06:46:00,33.1,28.8,30.04,NNW,327,0.0,0.0,84,0.00,,,0.00,Wunderground v.1.15,2013-03-27 10:46:00,
2013-03-27 06:51:00,33.1,28.5,30.04,NNW,327,0.0,0.0,83,0.00,,,0.00,Wunderground v.1.15,2013-03-27 10:51:00,
2013-03-27 06:56:00,33.1,28.5,30.04,NNW,327,0.0,1.0,83,0.00,,,0.00,Wunderground v.1.15,2013-03-27 10:56:00,
2013-03-27 07:01:00,32.9,28.3,30.05,NNW,327,0.0,2.0,83,0.00,,,0.00,Wunderground v.1.15,2013-03-27 11:01:00,
2013-03-27 07:07:00,33.1,28.5,30.05,NNW,327,1.0,3.0,83,0.00,,,0.00,Wunderground v.1.15,2013-03-27 11:07:00,
2013-03-27 07:13:00,33.1,28.2,30.05,NNW,327,1.0,2.0,82,0.00,,,0.00,Wunderground v.1.15,2013-03-27 11:13:00,
2013-03-27 07:18:00,33.1,28.2,30.06,NNW,327,1.0,2.0,82,0.00,,,0.00,Wunderground v.1.15,2013-03-27 11:18:00,
2013-03-27 07:23:00,32.9,28.0,30.06,NNW,327,1.0,2.0,82,0.00,,,0.00,Wunderground v.1.15,2013-03-27 11:23:00,
2013-03-27 07:28:00,32.9,28.0,30.06,NNW,327,1.0,2.0,82,0.00,,,0.00,Wunderground v.1.15,2013-03-27 11:28:00,
2013-03-27 07:33:00,32.9,28.0,30.06,NNW,327,0.0,0.0,82,0.00,,,0.00,Wunderground v.1.15,2013-03-27 11:33:00,
2013-03-27 07:39:00,32.9,28.3,30.06,NNW,327,0.0,0.0,83,0.00,,,0.00,Wunderground v.1.15,2013-03-27 11:39:00,
2013-03-27 07:44:00,33.1,28.5,30.06,NNW,327,0.0,0.0,83,0.00,,,0.00,Wunderground v.1.15,2013-03-27 11:44:00,
2013-03-27 07:49:00,33.1,28.5,30.06,NNW,327,0.0,1.0,83,0.00,,,0.00,Wunderground v.1.15,2013-03-27 11:49:00,
2013-03-27 07:54:00,33.4,28.5,30.06,NNW,327,0.0,1.0,82,0.00,,,0.00,Wunderground v.1.15,2013-03-27 11:54:00,
2013-03-27 08:00:00,33.7,28.8,30.07,NNW,327,1.0,3.0,82,0.00,,,0.00,Wunderground v.1.15,2013-03-27 12:00:00,
2013-03-27 08:06:00,34.0,28.8,30.07,NNW,327,1.0,2.0,81,0.00,,,0.00,Wunderground v.1.15,2013-03-27 12:06:00,
2013-03-27 08:11:00,34.4,28.9,30.07,NNW,327,1.0,2.0,80,0.00,,,0.00,Wunderground v.1.15,2013-03-27 12:11:00,
2013-03-27 08:16:00,34.9,29.0,30.08,NNW,327,2.0,4.0,79,0.00,,,0.00,Wunderground v.1.15,2013-03-27 12:16:00,
2013-03-27 08:22:00,35.2,29.3,30.08,NNW,327,2.0,3.0,79,0.00,,,0.00,Wunderground v.1.15,2013-03-27 12:22:00,
2013-03-27 08:27:00,35.6,29.1,30.08,WNW,303,2.0,4.0,77,0.00,,,0.00,Wunderground v.1.15,2013-03-27 12:27:00,
2013-03-27 08:32:00,36.0,29.2,30.08,NW,304,2.0,3.0,76,0.00,,,0.00,Wunderground v.1.15,2013-03-27 12:32:00,
2013-03-27 08:37:00,36.6,29.1,30.08,NNW,337,3.0,5.0,74,0.00,,,0.00,Wunderground v.1.15,2013-03-27 12:37:00,
2013-03-27 08:42:00,37.0,28.5,30.08,NNW,340,3.0,3.0,71,0.00,,,0.00,Wunderground v.1.15,2013-03-27 12:42:00,
2013-03-27 08:48:00,37.6,28.7,30.08,NW,325,3.0,3.0,70,0.00,,,0.00,Wunderground v.1.15,2013-03-27 12:48:00,
2013-03-27 08:53:00,38.2,28.9,30.08,NNW,333,3.0,4.0,69,0.00,,,0.00,Wunderground v.1.15,2013-03-27 12:53:00,
2013-03-27 08:58:00,38.8,28.4,30.08,NW,309,3.0,4.0,66,0.00,,,0.00,Wunderground v.1.15,2013-03-27 12:58:00,
2013-03-27 09:03:00,39.2,28.4,30.09,NNW,344,3.0,5.0,65,0.00,,,0.00,Wunderground v.1.15,2013-03-27 13:03:00,
2013-03-27 09:08:00,39.5,28.3,30.09,North,360,4.0,5.0,64,0.00,,,0.00,Wunderground v.1.15,2013-03-27 13:08:00,
2013-03-27 09:13:00,40.1,28.9,30.09,NNW,332,3.0,4.0,64,0.00,,,0.00,Wunderground v.1.15,2013-03-27 13:13:00,
2013-03-27 09:19:00,40.5,28.5,30.09,WNW,297,3.0,4.0,62,0.00,,,0.00,Wunderground v.1.15,2013-03-27 13:19:00,
2013-03-27 09:24:00,41.1,29.1,30.09,North,5,3.0,3.0,62,0.00,,,0.00,Wunderground v.1.15,2013-03-27 13:24:00,
2013-03-27 09:29:00,41.6,29.1,30.09,NNW,336,3.0,5.0,61,0.00,,,0.00,Wunderground v.1.15,2013-03-27 13:29:00,
2013-03-27 09:34:00,41.9,28.2,30.09,North,5,4.0,6.0,58,0.00,,,0.00,Wunderground v.1.15,2013-03-27 13:34:00,
2013-03-27 09:40:00,42.3,28.6,30.09,NNW,333,5.0,9.0,58,0.00,,,0.00,Wunderground v.1.15,2013-03-27 13:40:00,
2013-03-27 09:45:00,42.5,27.9,30.09,NNW,344,4.0,8.0,56,0.00,,,0.00,Wunderground v.1.15,2013-03-27 13:45:00,
2013-03-27 09:50:00,42.8,28.6,30.09,North,11,4.0,8.0,57,0.00,,,0.00,Wunderground v.1.15,2013-03-27 13:50:00,
2013-03-27 09:55:00,43.3,28.2,30.09,NNE,12,4.0,6.0,55,0.00,,,0.00,Wunderground v.1.15,2013-03-27 13:55:00,
2013-03-27 10:00:00,43.9,28.8,30.08,North,360,3.0,6.0,55,0.00,,,0.00,Wunderground v.1.15,2013-03-27 14:00:00,
2013-03-27 10:05:00,44.1,28.0,30.08,NNW,336,3.0,7.0,53,0.00,,,0.00,Wunderground v.1.15,2013-03-27 14:05:00,
2013-03-27 10:11:00,44.3,27.8,30.08,NNW,334,5.0,10.0,52,0.00,,,0.00,Wunderground v.1.15,2013-03-27 14:11:00,
2013-03-27 10:16:00,44.8,27.8,30.08,North,355,4.0,5.0,51,0.00,,,0.00,Wunderground v.1.15,2013-03-27 14:16:00,
2013-03-27 10:21:00,45.8,27.7,30.08,NNE,19,3.0,6.0,49,0.00,,,0.00,Wunderground v.1.15,2013-03-27 14:21:00,
2013-03-27 10:26:00,46.4,27.2,30.08,NNW,345,3.0,14.0,47,0.00,,,0.00,Wunderground v.1.15,2013-03-27 14:26:00,
2013-03-27 10:32:00,46.5,27.8,30.08,NNW,346,3.0,3.0,48,0.00,,,0.00,Wunderground v.1.15,2013-03-27 14:32:00,
2013-03-27 10:37:00,46.5,27.3,30.08,NNE,20,3.0,4.0,47,0.00,,,0.00,Wunderground v.1.15,2013-03-27 14:37:00,
2013-03-27 10:42:00,46.7,27.5,30.08,NNW,342,3.0,4.0,47,0.00,,,0.00,Wunderground v.1.15,2013-03-27 14:42:00,
2013-03-27 10:47:00,46.8,26.6,30.08,ESE,121,4.0,12.0,45,0.00,,,0.00,Wunderground v.1.15,2013-03-27 14:47:00,
2013-03-27 10:52:00,47.0,27.3,30.08,NNE,32,3.0,5.0,46,0.00,,,0.00,Wunderground v.1.15,2013-03-27 14:52:00,
2013-03-27 10:58:00,47.1,28.4,30.08,NNE,32,4.0,10.0,48,0.00,,,0.00,Wunderground v.1.15,2013-03-27 14:58:00,
2013-03-27 11:03:00,47.4,28.2,30.08,NNW,338,4.0,4.0,47,0.00,,,0.00,Wunderground v.1.15,2013-03-27 15:03:00,
2013-03-27 11:08:00,47.3,27.0,30.08,NNW,342,5.0,5.0,45,0.00,,,0.00,Wunderground v.1.15,2013-03-27 15:08:00,
2013-03-27 11:13:00,47.4,28.2,30.08,NNW,345,4.0,4.0,47,0.00,,,0.00,Wunderground v.1.15,2013-03-27 15:13:00,
2013-03-27 11:18:00,47.9,26.5,30.08,NNE,19,3.0,5.0,43,0.00,,,0.00,Wunderground v.1.15,2013-03-27 15:18:00,
2013-03-27 11:24:00,48.0,25.4,30.08,NNW,338,4.0,8.0,41,0.00,,,0.00,Wunderground v.1.15,2013-03-27 15:24:00,
2013-03-27 11:29:00,48.0,24.8,30.08,NNW,348,6.0,8.0,40,0.00,,,0.00,Wunderground v.1.15,2013-03-27 15:29:00,
2013-03-27 11:34:00,48.3,23.8,30.08,NNE,22,5.0,6.0,38,0.00,,,0.00,Wunderground v.1.15,2013-03-27 15:34:00,
2013-03-27 11:39:00,48.8,23.6,30.08,NNW,329,4.0,8.0,37,0.00,,,0.00,Wunderground v.1.15,2013-03-27 15:39:00,
2013-03-27 11:45:00,48.5,23.4,30.08,North,350,4.0,7.0,37,0.00,,,0.00,Wunderground v.1.15,2013-03-27 15:45:00,
2013-03-27 11:50:00,49.1,23.9,30.08,NNW,333,4.0,9.0,37,0.00,,,0.00,Wunderground v.1.15,2013-03-27 15:50:00,
2013-03-27 11:55:00,49.4,23.5,30.08,NNE,24,4.0,5.0,36,0.00,,,0.00,Wunderground v.1.15,2013-03-27 15:55:00,
2013-03-27 12:00:00,50.1,22.8,30.07,NNW,339,3.0,5.0,34,0.00,,,0.00,Wunderground v.1.15,2013-03-27 16:00:00,
2013-03-27 12:05:00,49.9,22.6,30.07,NNE,14,4.0,6.0,34,0.00,,,0.00,Wunderground v.1.15,2013-03-27 16:05:00,
2013-03-27 12:10:00,49.6,21.6,30.07,NNW,348,5.0,8.0,33,0.00,,,0.00,Wunderground v.1.15,2013-03-27 16:10:00,
2013-03-27 12:15:00,49.6,22.3,30.07,WNW,296,5.0,10.0,34,0.00,,,0.00,Wunderground v.1.15,2013-03-27 16:15:00,
2013-03-27 12:21:00,50.1,22.1,30.07,NNW,331,5.0,11.0,33,0.00,,,0.00,Wunderground v.1.15,2013-03-27 16:21:00,
2013-03-27 12:26:00,50.5,23.8,30.07,NNW,337,4.0,11.0,35,0.00,,,0.00,Wunderground v.1.15,2013-03-27 16:26:00,
2013-03-27 12:31:00,50.4,22.3,30.07,North,360,4.0,11.0,33,0.00,,,0.00,Wunderground v.1.15,2013-03-27 16:31:00,
2013-03-27 12:37:00,50.5,22.4,30.07,North,5,6.0,10.0,33,0.00,,,0.00,Wunderground v.1.15,2013-03-27 16:37:00,
2013-03-27 12:43:00,50.5,23.1,30.07,NNW,327,6.0,6.0,34,0.00,,,0.00,Wunderground v.1.15,2013-03-27 16:43:00,
2013-03-27 12:48:00,50.5,21.7,30.06,NW,325,4.0,10.0,32,0.00,,,0.00,Wunderground v.1.15,2013-03-27 16:48:00,
2013-03-27 12:53:00,50.5,22.4,30.06,NNW,336,6.0,7.0,33,0.00,,,0.00,Wunderground v.1.15,2013-03-27 16:53:00,
2013-03-27 12:58:00,50.5,20.9,30.06,NW,310,7.0,9.0,31,0.00,,,0.00,Wunderground v.1.15,2013-03-27 16:58:00,
2013-03-27 13:03:00,50.8,21.2,30.05,NNE,22,5.0,9.0,31,0.00,,,0.00,Wunderground v.1.15,2013-03-27 17:03:00,
2013-03-27 13:09:00,51.1,23.0,30.05,NNW,332,5.0,9.0,33,0.00,,,0.00,Wunderground v.1.15,2013-03-27 17:09:00,
2013-03-27 13:14:00,51.7,20.4,30.05,NW,310,5.0,10.0,29,0.00,,,0.00,Wunderground v.1.15,2013-03-27 17:14:00,
2013-03-27 13:19:00,52.0,23.0,30.05,NW,324,5.0,10.0,32,0.00,,,0.00,Wunderground v.1.15,2013-03-27 17:19:00,
2013-03-27 13:24:00,52.2,21.7,30.05,NW,304,5.0,5.0,30,0.00,,,0.00,Wunderground v.1.15,2013-03-27 17:24:00,
2013-03-27 13:29:00,52.2,20.9,30.05,NNW,329,6.0,13.0,29,0.00,,,0.00,Wunderground v.1.15,2013-03-27 17:29:00,
2013-03-27 13:35:00,52.0,23.0,30.05,NNW,329,9.0,9.0,32,0.00,,,0.00,Wunderground v.1.15,2013-03-27 17:35:00,
2013-03-27 13:40:00,52.0,23.0,30.05,NNW,342,7.0,9.0,32,0.00,,,0.00,Wunderground v.1.15,2013-03-27 17:40:00,
2013-03-27 13:46:00,52.2,20.0,30.04,NNW,333,5.0,14.0,28,0.00,,,0.00,Wunderground v.1.15,2013-03-27 17:46:00,
2013-03-27 13:51:00,52.2,20.9,30.04,NNW,334,7.0,14.0,29,0.00,,,0.00,Wunderground v.1.15,2013-03-27 17:51:00,
2013-03-27 13:56:00,52.6,21.2,30.04,NW,306,6.0,7.0,29,0.00,,,0.00,Wunderground v.1.15,2013-03-27 17:56:00,
2013-03-27 14:01:00,52.8,21.4,30.03,NNW,336,6.0,13.0,29,0.00,,,0.00,Wunderground v.1.15,2013-03-27 18:01:00,
2013-03-27 14:07:00,52.6,22.0,30.03,North,355,7.0,13.0,30,0.00,,,0.00,Wunderground v.1.15,2013-03-27 18:07:00,
2013-03-27 14:12:00,52.9,22.3,30.03,NNE,28,6.0,6.0,30,0.00,,,0.00,Wunderground v.1.15,2013-03-27 18:12:00,
2013-03-27 14:17:00,54.1,23.3,30.03,West,273,4.0,8.0,30,0.00,,,0.00,Wunderground v.1.15,2013-03-27 18:17:00,
2013-03-27 14:23:00,54.1,24.9,30.03,NW,313,5.0,10.0,32,0.00,,,0.00,Wunderground v.1.15,2013-03-27 18:23:00,
2013-03-27 14:29:00,53.6,23.7,30.03,NW,306,7.0,10.0,31,0.00,,,0.00,Wunderground v.1.15,2013-03-27 18:29:00,
2013-03-27 14:34:00,53.8,21.4,30.03,NNW,339,6.0,11.0,28,0.00,,,0.00,Wunderground v.1.15,2013-03-27 18:34:00,
2013-03-27 14:39:00,53.5,21.2,30.03,NNW,340,6.0,11.0,28,0.00,,,0.00,Wunderground v.1.15,2013-03-27 18:39:00,
2013-03-27 14:44:00,53.6,23.7,30.02,NNW,337,7.0,14.0,31,0.00,,,0.00,Wunderground v.1.15,2013-03-27 18:44:00,
2013-03-27 14:50:00,53.9,22.3,30.02,NNW,347,6.0,14.0,29,0.00,,,0.00,Wunderground v.1.15,2013-03-27 18:50:00,
2013-03-27 14:55:00,54.1,24.1,30.02,NNW,343,5.0,14.0,31,0.00,,,0.00,Wunderground v.1.15,2013-03-27 18:55:00,
2013-03-27 15:01:00,54.4,22.8,30.01,NNW,340,5.0,14.0,29,0.00,,,0.00,Wunderground v.1.15,2013-03-27 19:01:00,
2013-03-27 15:06:00,54.5,23.7,30.01,NNW,336,5.0,14.0,30,0.00,,,0.00,Wunderground v.1.15,2013-03-27 19:06:00,
2013-03-27 15:12:00,54.8,23.1,30.01,West,266,4.0,13.0,29,0.00,,,0.00,Wunderground v.1.15,2013-03-27 19:12:00,
2013-03-27 15:18:00,54.8,23.1,30.00,NW,317,6.0,13.0,29,0.00,,,0.00,Wunderground v.1.15,2013-03-27 19:18:00,
2013-03-27 15:23:00,54.8,23.1,30.00,NNE,26,7.0,13.0,29,0.00,,,0.00,Wunderground v.1.15,2013-03-27 19:23:00,
2013-03-27 15:29:00,55.7,26.3,30.00,North,5,5.0,13.0,32,0.00,,,0.00,Wunderground v.1.15,2013-03-27 19:29:00,
2013-03-27 15:34:00,54.8,23.9,30.00,NNW,344,6.0,15.0,30,0.00,,,0.00,Wunderground v.1.15,2013-03-27 19:34:00,
2013-03-27 15:39:00,54.7,26.1,30.00,NNW,327,6.0,15.0,33,0.00,,,0.00,Wunderground v.1.15,2013-03-27 19:39:00,
2013-03-27 15:44:00,54.8,25.5,30.00,NNW,333,6.0,15.0,32,0.00,,,0.00,Wunderground v.1.15,2013-03-27 19:44:00,
2013-03-27 15:49:00,55.3,25.9,30.00,NNW,334,6.0,15.0,32,0.00,,,0.00,Wunderground v.1.15,2013-03-27 19:49:00,
2013-03-27 15:55:00,55.1,24.2,30.00,NW,313,6.0,15.0,30,0.00,,,0.00,Wunderground v.1.15,2013-03-27 19:55:00,
2013-03-27 16:00:00,55.0,23.3,30.00,WNW,300,7.0,15.0,29,0.00,,,0.00,Wunderground v.1.15,2013-03-27 20:00:00,
2013-03-27 16:06:00,55.1,24.2,30.00,WNW,293,6.0,14.0,30,0.00,,,0.00,Wunderground v.1.15,2013-03-27 20:06:00,
2013-03-27 16:12:00,55.6,24.6,30.00,WNW,297,6.0,14.0,30,0.00,,,0.00,Wunderground v.1.15,2013-03-27 20:12:00,
2013-03-27 16:17:00,56.0,25.0,30.00,NW,305,6.0,14.0,30,0.00,,,0.00,Wunderground v.1.15,2013-03-27 20:17:00,
2013-03-27 16:22:00,56.0,25.8,30.00,NNW,333,5.0,14.0,31,0.00,,,0.00,Wunderground v.1.15,2013-03-27 20:22:00,
2013-03-27 16:27:00,55.4,25.2,30.00,WNW,288,7.0,14.0,31,0.00,,,0.00,Wunderground v.1.15,2013-03-27 20:27:00,
2013-03-27 16:33:00,55.3,25.1,30.00,NNW,329,6.0,14.0,31,0.00,,,0.00,Wunderground v.1.15,2013-03-27 20:33:00,
2013-03-27 16:39:00,55.4,26.7,30.00,North,350,6.0,14.0,33,0.00,,,0.00,Wunderground v.1.15,2013-03-27 20:39:00,
2013-03-27 16:45:00,55.7,24.7,30.00,WNW,300,6.0,14.0,30,0.00,,,0.00,Wunderground v.1.15,2013-03-27 20:45:00,
2013-03-27 16:50:00,55.7,24.7,30.00,NNW,346,6.0,14.0,30,0.00,,,0.00,Wunderground v.1.15,2013-03-27 20:50:00,
2013-03-27 16:55:00,55.9,24.1,30.00,NNW,331,6.0,14.0,29,0.00,,,0.00,Wunderground v.1.15,2013-03-27 20:55:00,
2013-03-27 17:00:00,55.7,24.7,30.00,NNW,339,7.0,14.0,30,0.00,,,0.00,Wunderground v.1.15,2013-03-27 21:00:00,
2013-03-27 17:06:00,55.7,23.9,30.00,NW,309,7.0,14.0,29,0.00,,,0.00,Wunderground v.1.15,2013-03-27 21:06:00,
2013-03-27 17:11:00,56.0,24.2,30.00,WNW,300,6.0,14.0,29,0.00,,,0.00,Wunderground v.1.15,2013-03-27 21:11:00,
2013-03-27 17:16:00,55.7,24.7,30.00,NNW,334,6.0,14.0,30,0.00,,,0.00,Wunderground v.1.15,2013-03-27 21:16:00,
2013-03-27 17:21:00,56.0,25.0,30.00,NNW,335,5.0,14.0,30,0.00,,,0.00,Wunderground v.1.15,2013-03-27 21:21:00,
2013-03-27 17:27:00,56.3,24.4,30.00,NW,313,4.0,14.0,29,0.00,,,0.00,Wunderground v.1.15,2013-03-27 21:27:00,
2013-03-27 17:32:00,56.2,23.5,30.00,NW,304,5.0,14.0,28,0.00,,,0.00,Wunderground v.1.15,2013-03-27 21:32:00,
2013-03-27 17:37:00,55.9,24.1,30.00,NNW,336,6.0,14.0,29,0.00,,,0.00,Wunderground v.1.15,2013-03-27 21:37:00,
2013-03-27 17:42:00,56.0,24.2,30.00,NNW,327,5.0,5.0,29,0.00,,,0.00,Wunderground v.1.15,2013-03-27 21:42:00,
2013-03-27 17:47:00,56.0,23.3,30.00,NNW,343,5.0,13.0,28,0.00,,,0.00,Wunderground v.1.15,2013-03-27 21:47:00,
2013-03-27 17:53:00,55.7,23.1,30.00,NW,323,6.0,13.0,28,0.00,,,0.00,Wunderground v.1.15,2013-03-27 21:53:00,
2013-03-27 17:58:00,55.7,23.9,30.00,NW,321,6.0,13.0,29,0.00,,,0.00,Wunderground v.1.15,2013-03-27 21:58:00,
2013-03-27 18:03:00,55.7,23.1,30.00,NNW,333,5.0,13.0,28,0.00,,,0.00,Wunderground v.1.15,2013-03-27 22:03:00,
2013-03-27 18:09:00,55.7,23.9,30.00,NNW,338,5.0,13.0,29,0.00,,,0.00,Wunderground v.1.15,2013-03-27 22:09:00,
2013-03-27 18:14:00,55.7,23.9,30.00,NNW,336,5.0,13.0,29,0.00,,,0.00,Wunderground v.1.15,2013-03-27 22:14:00,
2013-03-27 18:19:00,55.6,23.8,30.00,NW,322,5.0,13.0,29,0.00,,,0.00,Wunderground v.1.15,2013-03-27 22:19:00,
2013-03-27 18:25:00,55.6,23.8,30.00,NNW,333,4.0,13.0,29,0.00,,,0.00,Wunderground v.1.15,2013-03-27 22:25:00,
2013-03-27 18:30:00,55.3,23.5,30.00,NNW,333,5.0,13.0,29,0.00,,,0.00,Wunderground v.1.15,2013-03-27 22:30:00,
2013-03-27 18:35:00,55.1,22.5,30.00,NNW,342,5.0,12.0,28,0.00,,,0.00,Wunderground v.1.15,2013-03-27 22:35:00,
2013-03-27 18:40:00,55.0,23.3,30.00,NNW,333,4.0,12.0,29,0.00,,,0.00,Wunderground v.1.15,2013-03-27 22:40:00,
2013-03-27 18:46:00,54.8,22.3,30.00,NNW,336,5.0,12.0,28,0.00,,,0.00,Wunderground v.1.15,2013-03-27 22:46:00,
2013-03-27 18:52:00,54.7,23.8,30.00,North,355,4.0,12.0,30,0.00,,,0.00,Wunderground v.1.15,2013-03-27 22:52:00,
2013-03-27 18:58:00,54.5,22.9,30.00,NW,326,3.0,12.0,29,0.00,,,0.00,Wunderground v.1.15,2013-03-27 22:58:00,
2013-03-27 19:03:00,54.4,22.8,30.00,NNW,331,4.0,12.0,29,0.00,,,0.00,Wunderground v.1.15,2013-03-27 23:03:00,
2013-03-27 19:09:00,54.1,23.3,30.00,NW,325,5.0,12.0,30,0.00,,,0.00,Wunderground v.1.15,2013-03-27 23:09:00,
2013-03-27 19:14:00,54.1,24.1,30.01,NNW,344,5.0,11.0,31,0.00,,,0.00,Wunderground v.1.15,2013-03-27 23:14:00,
2013-03-27 19:19:00,53.8,24.6,30.01,NNW,344,3.0,11.0,32,0.00,,,0.00,Wunderground v.1.15,2013-03-27 23:19:00,
2013-03-27 19:25:00,53.5,23.6,30.01,NNW,341,2.0,11.0,31,0.00,,,0.00,Wunderground v.1.15,2013-03-27 23:25:00,
2013-03-27 19:30:00,53.3,24.2,30.01,NNW,339,2.0,11.0,32,0.00,,,0.00,Wunderground v.1.15,2013-03-27 23:30:00,
2013-03-27 19:36:00,53.2,24.8,30.01,NNW,339,1.0,12.0,33,0.00,,,0.00,Wunderground v.1.15,2013-03-27 23:36:00,
2013-03-27 19:41:00,52.8,24.5,30.01,NNW,339,1.0,12.0,33,0.00,,,0.00,Wunderground v.1.15,2013-03-27 23:41:00,
2013-03-27 19:46:00,52.6,25.0,30.01,NNW,339,0.0,12.0,34,0.00,,,0.00,Wunderground v.1.15,2013-03-27 23:46:00,
2013-03-27 19:51:00,52.3,24.7,30.01,NNW,339,0.0,12.0,34,0.00,,,0.00,Wunderground v.1.15,2013-03-27 23:51:00,
2013-03-27 19:56:00,52.0,25.2,30.01,NNW,339,0.0,12.0,35,0.00,,,0.00,Wunderground v.1.15,2013-03-27 23:56:00,
2013-03-27 20:02:00,51.7,26.2,30.01,NNW,339,0.0,12.0,37,0.00,,,0.00,Wunderground v.1.15,2013-03-28 00:02:00,
2013-03-27 20:07:00,51.4,29.1,30.01,NNW,339,0.0,12.0,42,0.00,,,0.00,Wunderground v.1.15,2013-03-28 00:07:00,
2013-03-27 20:13:00,51.1,28.8,30.01,NNW,339,0.0,5.0,42,0.00,,,0.00,Wunderground v.1.15,2013-03-28 00:13:00,
2013-03-27 20:18:00,50.8,29.1,30.02,NNW,339,0.0,5.0,43,0.00,,,0.00,Wunderground v.1.15,2013-03-28 00:18:00,
2013-03-27 20:23:00,50.4,29.8,30.02,NNW,339,0.0,5.0,45,0.00,,,0.00,Wunderground v.1.15,2013-03-28 00:23:00,
2013-03-27 20:28:00,49.8,29.3,30.02,NNW,339,0.0,5.0,45,0.00,,,0.00,Wunderground v.1.15,2013-03-28 00:28:00,
2013-03-27 20:34:00,49.2,28.7,30.03,NNW,339,0.0,5.0,45,0.00,,,0.00,Wunderground v.1.15,2013-03-28 00:34:00,
2013-03-27 20:40:00,48.6,28.2,30.03,NNW,339,0.0,5.0,45,0.00,,,0.00,Wunderground v.1.15,2013-03-28 00:40:00,
2013-03-27 20:45:00,48.3,29.0,30.03,NNW,339,0.0,2.0,47,0.00,,,0.00,Wunderground v.1.15,2013-03-28 00:45:00,
2013-03-27 20:50:00,47.7,29.5,30.03,NNW,339,0.0,2.0,49,0.00,,,0.00,Wunderground v.1.15,2013-03-28 00:50:00,
2013-03-27 20:55:00,47.3,31.0,30.03,NNW,339,0.0,2.0,53,0.00,,,0.00,Wunderground v.1.15,2013-03-28 00:55:00,
2013-03-27 21:00:00,46.8,31.0,30.04,NNW,339,0.0,2.0,54,0.00,,,0.00,Wunderground v.1.15,2013-03-28 01:00:00,
2013-03-27 21:07:00,46.2,30.9,30.04,NNW,339,0.0,2.0,55,0.00,,,0.00,Wunderground v.1.15,2013-03-28 01:07:00,
2013-03-27 21:13:00,46.0,31.6,30.04,NNW,339,0.0,0.0,57,0.00,,,0.00,Wunderground v.1.15,2013-03-28 01:13:00,
2013-03-27 21:18:00,45.5,32.0,30.05,NNW,339,0.0,2.0,59,0.00,,,0.00,Wunderground v.1.15,2013-03-28 01:18:00,
2013-03-27 21:23:00,45.1,30.8,30.05,NNW,339,0.0,0.0,57,0.00,,,0.00,Wunderground v.1.15,2013-03-28 01:23:00,
2013-03-27 21:28:00,44.8,30.9,30.05,NNW,339,0.0,0.0,58,0.00,,,0.00,Wunderground v.1.15,2013-03-28 01:28:00,
2013-03-27 21:33:00,44.6,32.0,30.05,NNW,339,0.0,1.0,61,0.00,,,0.00,Wunderground v.1.15,2013-03-28 01:33:00,
2013-03-27 21:38:00,44.5,31.9,30.05,NNW,339,0.0,1.0,61,0.00,,,0.00,Wunderground v.1.15,2013-03-28 01:38:00,
2013-03-27 21:43:00,44.2,31.2,30.05,NNW,339,0.0,1.0,60,0.00,,,0.00,Wunderground v.1.15,2013-03-28 01:43:00,
2013-03-27 21:49:00,43.9,30.5,30.05,NNW,339,0.0,1.0,59,0.00,,,0.00,Wunderground v.1.15,2013-03-28 01:49:00,
2013-03-27 21:54:00,43.8,30.8,30.05,NNW,339,0.0,1.0,60,0.00,,,0.00,Wunderground v.1.15,2013-03-28 01:54:00,
2013-03-27 21:59:00,43.5,31.3,30.06,NNW,339,0.0,1.0,62,0.00,,,0.00,Wunderground v.1.15,2013-03-28 01:59:00,
2013-03-27 22:05:00,43.2,31.8,30.06,NNW,339,0.0,2.0,64,0.00,,,0.00,Wunderground v.1.15,2013-03-28 02:05:00,
2013-03-27 22:10:00,43.1,32.5,30.06,NNW,339,0.0,2.0,66,0.00,,,0.00,Wunderground v.1.15,2013-03-28 02:10:00,
2013-03-27 22:16:00,42.8,32.2,30.06,NNW,339,0.0,2.0,66,0.00,,,0.00,Wunderground v.1.15,2013-03-28 02:16:00,
2013-03-27 22:21:00,42.6,31.7,30.06,NNW,339,0.0,2.0,65,0.00,,,0.00,Wunderground v.1.15,2013-03-28 02:21:00,
2013-03-27 22:27:00,42.3,31.7,30.06,NNW,339,0.0,2.0,66,0.00,,,0.00,Wunderground v.1.15,2013-03-28 02:27:00,
2013-03-27 22:33:00,42.2,31.6,30.06,NNW,339,0.0,2.0,66,0.00,,,0.00,Wunderground v.1.15,2013-03-28 02:33:00,
2013-03-27 22:38:00,42.1,32.3,30.06,NNW,339,0.0,2.0,68,0.00,,,0.00,Wunderground v.1.15,2013-03-28 02:38:00,
2013-03-27 22:44:00,41.9,32.1,30.06,NNW,339,0.0,0.0,68,0.00,,,0.00,Wunderground v.1.15,2013-03-28 02:44:00,
2013-03-27 22:50:00,41.8,32.0,30.06,NNW,339,0.0,0.0,68,0.00,,,0.00,Wunderground v.1.15,2013-03-28 02:50:00,
2013-03-27 22:55:00,41.6,31.1,30.06,NNW,339,0.0,0.0,66,0.00,,,0.00,Wunderground v.1.15,2013-03-28 02:55:00,
2013-03-27 23:01:00,41.3,30.4,30.06,NNW,339,0.0,0.0,65,0.00,,,0.00,Wunderground v.1.15,2013-03-28 03:01:00,
2013-03-27 23:06:00,41.1,31.7,30.06,NNW,339,0.0,0.0,69,0.00,,,0.00,Wunderground v.1.15,2013-03-28 03:06:00,
2013-03-27 23:11:00,40.9,32.2,30.06,NNW,339,0.0,0.0,71,0.00,,,0.00,Wunderground v.1.15,2013-03-28 03:11:00,
2013-03-27 23:17:00,40.8,32.5,30.06,NNW,339,0.0,0.0,72,0.00,,,0.00,Wunderground v.1.15,2013-03-28 03:17:00,
2013-03-27 23:22:00,40.5,32.2,30.06,NNW,339,0.0,0.0,72,0.00,,,0.00,Wunderground v.1.15,2013-03-28 03:22:00,
2013-03-27 23:28:00,40.2,32.2,30.06,NNW,339,0.0,0.0,73,0.00,,,0.00,Wunderground v.1.15,2013-03-28 03:28:00,
2013-03-27 23:33:00,39.9,31.9,30.07,NNW,339,0.0,0.0,73,0.00,,,0.00,Wunderground v.1.15,2013-03-28 03:33:00,
2013-03-27 23:38:00,39.6,32.3,30.07,NNW,339,0.0,0.0,75,0.00,,,0.00,Wunderground v.1.15,2013-03-28 03:38:00,
2013-03-27 23:43:00,39.5,32.2,30.07,NNW,339,0.0,0.0,75,0.00,,,0.00,Wunderground v.1.15,2013-03-28 03:43:00,
2013-03-27 23:48:00,39.3,31.7,30.07,NNW,339,0.0,0.0,74,0.00,,,0.00,Wunderground v.1.15,2013-03-28 03:48:00,
2013-03-27 23:54:00,39.3,32.0,30.07,NNW,339,0.0,0.0,75,0.00,,,0.00,Wunderground v.1.15,2013-03-28 03:54:00,
2013-03-27 23:59:00,39.3,32.4,30.07,NNW,339,0.0,0.0,76,0.00,,,0.00,Wunderground v.1.15,2013-03-28 03:59:00,